Date,TemperatureHighF,TemperatureAvgF,TemperatureLowF,DewpointHighF,DewpointAvgF,DewpointLowF,HumidityHigh,HumidityAvg,HumidityLow,PressureMaxIn,PressureMinIn,WindSpeedMaxMPH,WindSpeedAvgMPH,GustSpeedMaxMPH,PrecipitationSumIn
2013-1-1,36.1,27.4,18.5,18.7,11.7,3.9,61,50,38,30.03,29.94,7,-9,11,0.00
2013-1-2,43.5,28.1,14.5,13.2,6.8,0.8,52,39,28,29.97,29.88,6,-35,7,0.00
2013-1-3,40.4,28.3,19.4,6.2,1.5,-99.9,44,31,21,30.06,29.88,11,-12,20,0.00
2013-1-4,42.8,28.4,18.4,8.7,-0.3,-99.9,39,29,20,30.09,30.00,6,-12,9,0.00
2013-1-5,49.3,33.7,21.7,11.0,-0.2,-99.9,32,24,19,30.15,30.03,5,-27,6,0.00
2013-1-6,49.5,40.2,33.8,9.5,5.5,-1.0,30,24,19,30.03,24.78,16,-34,20,0.00
2013-1-7,49.1,38.3,28.1,15.6,7.7,-99.9,36,28,21,29.83,29.74,10,-44,13,0.00
2013-1-8,54.0,36.9,21.2,11.4,5.2,-99.9,37,27,18,30.00,29.80,5,-56,9,0.00
2013-1-9,33.4,31.7,29.1,12.8,10.9,7.6,44,39,34,30.00,30.00,4,-23,5,0.00
2013-1-10,44.5,38.8,29.3,22.2,15.6,10.1,54,40,25,29.71,29.62,22,-32,29,0.00
2013-1-11,33.8,25.0,19.0,11.6,-0.2,-99.9,51,33,22,29.83,29.65,11,-30,15,0.00
2013-1-12,31.8,22.1,13.2,8.7,-1.4,-7.4,43,31,25,29.83,29.71,7,-52,9,0.00
2013-1-13,32.6,21.5,11.1,6.0,-3.4,-99.9,37,29,23,29.85,29.77,8,-16,10,0.00
2013-1-14,31.0,18.2,7.0,5.7,-5.3,-99.9,43,31,24,29.97,29.74,8,-50,9,0.00
2013-1-15,36.3,21.8,8.0,3.3,-4.9,-15.3,34,27,22,30.15,29.94,6,-51,8,0.00
2013-1-16,47.8,31.1,17.6,13.5,3.1,-99.9,41,30,22,30.15,30.06,5,-126,6,0.00
2013-1-17,52.3,32.0,23.0,16.5,-9.6,-99.9,44,25,21,30.15,30.06,6,-208,8,0.00
2013-1-18,54.0,34.4,24.6,16.5,-2.1,-99.9,43,27,20,30.12,30.03,5,-281,6,0.00
2013-1-19,55.9,38.0,25.2,17.1,7.7,-99.9,44,29,19,30.15,30.03,6,-321,6,0.00
2013-1-20,57.2,39.9,26.1,13.9,6.3,-1.3,34,24,17,30.09,30.00,5,-244,6,0.00
2013-1-21,59.8,41.4,24.6,14.9,6.4,-1.8,32,23,17,30.09,29.97,7,-262,10,0.00
2013-1-22,61.9,44.8,28.9,15.6,6.1,-99.9,23,20,16,30.12,30.03,6,-277,8,0.00
2013-1-23,63.6,49.6,36.0,16.6,9.3,0.8,22,19,16,30.15,30.06,10,-266,12,0.00
2013-1-24,53.8,48.8,44.2,44.0,30.1,11.0,90,56,21,30.12,30.03,10,-537,11,0.04
2013-1-25,61.0,50.4,43.0,45.1,39.3,32.1,86,68,35,30.09,29.94,7,-422,9,0.21
2013-1-26,48.9,47.0,44.7,48.2,46.3,44.1,100,98,87,29.94,29.77,13,-608,18,1.03
2013-1-27,52.6,45.0,38.5,48.5,42.8,32.2,100,92,68,29.88,24.72,12,-347,23,0.13
2013-1-28,42.4,34.4,21.7,36.8,25.8,17.1,91,72,41,29.77,29.68,11,1,14,0.13
2013-1-29,39.5,28.8,17.4,20.4,15.1,8.5,80,57,38,29.94,29.74,11,-10,17,0.12
2013-1-30,45.9,34.7,24.3,23.9,19.3,14.2,69,53,37,30.06,29.94,8,-58,11,0.00
2013-1-31,54.1,39.9,28.5,30.2,22.7,18.6,75,52,26,30.06,30.00,6,-90,8,0.00